Location: Unspecified
(32.5099°N, 80.0190°W)
Time: 16:08:31
(UTC-04:00)

CZ-3 Stage 3 - Visible Passes

Search period start: 23 July 2014 00:00
Search period end: 02 August 2014 00:00
Orbit: 423 x 34829 km, 30.6° (Epoch: 23 July)

Date Brightness Start Highest point End Pass type
(mag) Time Alt. Az. Time Alt. Az. Time Alt. Az.
23 Jul 7.1 00:29:34 10° SSW 09:44:15 37° SSE 10:06:46 10° E visible
23 Jul 5.1 20:46:24 10° SW 20:50:06 19° S 20:58:59 10° SE visible
24 Jul 9.7 04:29:04 10° SE 05:14:40 11° SE 05:45:00 10° SE visible
25 Jul 5.3 12:56:06 10° WSW 13:36:16 60° S 13:41:33 10° E visible
26 Jul 7.2 00:30:11 10° SSW 09:44:28 39° SSE 10:05:35 10° E visible
26 Jul 5.3 20:45:09 10° SW 20:48:54 17° S 20:57:26 10° SSE visible
27 Jul 9.6 03:59:47 10° SE 05:15:37 13° SE 05:56:08 10° ESE visible
28 Jul 5.2 12:57:47 10° WSW 13:34:51 63° S 13:39:56 10° E visible
29 Jul 7.3 00:31:15 10° SSW 09:44:29 41° SSE 10:04:20 10° E visible
29 Jul 5.5 20:43:57 10° SW 20:47:43 16° S 20:55:45 10° SSE visible
30 Jul 9.6 03:35:45 10° SE 05:16:28 15° SE 06:02:10 10° ESE visible
31 Jul 5.2 12:59:12 10° WSW 13:33:24 65° S 13:38:18 10° E visible
01 Aug 7.4 01:30:47 13° S 09:44:19 43° SSE 10:02:59 10° E visible
01 Aug 5.6 20:42:50 10° SW 20:46:33 15° S 20:53:53 10° SSE visible
